Weather History for Claresholm, AB

Change the Weather History Date:

Thursday, October 4, 2012

  Actual Average Record
Temperature  
Mean Temperature 31 °F -  
Max Temperature 45 °F - - ()
Min Temperature 17 °F - - ()
Degree Days  
Heating Degree Days 34    
Moisture  
Dew Point 22 °F    
Average Humidity 74    
Maximum Humidity 97    
Minimum Humidity 29    
Precipitation  
Precipitation 0.00 in - - ()
Sea Level Pressure  
Sea Level Pressure 30.54 in    
Wind  
Wind Speed 2 mph ()    
Max Wind Speed 7 mph    
Max Gust Speed -    
T = Trace of Precipitation, MM = Missing Value Source: Averaged Metar Reports

Daily Weather History Graph

Daily Weather History Graph

Search for Another Location

Airport:

Trip Planner

Search our weather history database for the weather conditions in past years. The results will help you decide how hot, cold, wet, or windy it might be!

Date:

Astronomy

Oct. 04, 2012 Rise Set
Actual Time 7:40 AM MDT 7:05 PM MDT
Civil Twilight 7:07 AM MDT 7:37 PM MDT
Nautical Twilight 6:30 AM MDT 8:14 PM MDT
Astronomical Twilight 5:52 AM MDT 8:52 PM MDT
Moon 9:16 PM MDT (10/4) 12:27 PM MDT (10/4)
Length of Visible Light 12h 29m
Length of Day
11h 25m
Waning Gibbous, 81% of the Moon is Illuminated
Oct 4
Waning Gibbous
Oct 8
Last Quarter
Oct 15
New
Oct 21
First Quarter
Oct 29
Full

Hourly Weather History & Observations

Time (MDT) Temp. Windchill Dew Point Humidity Pressure Visibility Wind Dir Wind Speed Gust Speed Precip Events Conditions
12:00 AM 24 °F - 23 °F 93% 30.58 in - NNE 1.2 mph - -  
12:00 AM 24.1 °F - 22.8 °F 95% 30.58 in - NNE 1.2 mph - N/A   Unknown
1:00 AM 21.2 °F - 19.6 °F 93% 30.58 in - East 1.2 mph - N/A   Unknown
2:00 AM 24.8 °F - 23.2 °F 94% 30.56 in - NE 2.3 mph - N/A   Unknown
3:00 AM 23.4 °F 18.9 °F 21.9 °F 94% 30.57 in - North 3.5 mph - N/A   Unknown
4:00 AM 20.1 °F 15.2 °F 19.0 °F 96% 30.56 in - NW 3.5 mph - N/A   Unknown
5:00 AM 22.3 °F - 21.4 °F 96% 30.55 in - North 2.3 mph - N/A   Unknown
6:00 AM 18 °F - 17 °F 92% 30.56 in - NE 1.2 mph - -  
6:00 AM 18.5 °F - 16.7 °F 93% 30.56 in - NE 1.2 mph - N/A   Unknown
7:00 AM 17.8 °F - 17.1 °F 97% 30.56 in - Calm Calm - N/A   Unknown
8:00 AM 20.8 °F - 18.9 °F 92% 30.56 in - NE 2.3 mph - N/A   Unknown
9:00 AM 24.4 °F - 20.1 °F 84% 30.57 in - North 1.2 mph - N/A   Unknown
10:00 AM 29.1 °F - 23.5 °F 80% 30.57 in - Calm Calm - N/A   Unknown
11:00 AM 34.7 °F - 27.3 °F 74% 30.56 in - SSE 2.3 mph - N/A   Unknown
12:00 PM 39 °F - 26 °F 48% 30.55 in - SSE 2.3 mph - -  
12:00 PM 39.0 °F - 26.1 °F 60% 30.55 in - SSE 2.3 mph - N/A   Unknown
1:00 PM 41.4 °F 37.6 °F 25.7 °F 54% 30.53 in - SSE 5.8 mph - N/A   Unknown
2:00 PM 43.0 °F 39.5 °F 23.0 °F 45% 30.51 in - SE 5.8 mph - N/A   Unknown
3:00 PM 43.9 °F 41.3 °F 21.9 °F 42% 30.51 in - East 4.6 mph - N/A   Unknown
4:00 PM 44.4 °F 41.2 °F 20.5 °F 39% 30.50 in - SE 5.8 mph - N/A   Unknown
5:00 PM 44.8 °F 42.4 °F 19.6 °F 37% 30.50 in - SE 4.6 mph - N/A   Unknown
6:00 PM 43 °F - 21 °F 29% 30.51 in - SSE 5.8 mph - -  
6:00 PM 43.2 °F 39.7 °F 21.2 °F 42% 30.51 in - SSE 5.8 mph - N/A   Unknown
7:00 PM 37.9 °F 34.4 °F 24.1 °F 57% 30.51 in - SE 4.6 mph - N/A   Unknown
8:00 PM 30.6 °F 24.7 °F 24.4 °F 78% 30.52 in - SSE 5.8 mph - N/A   Unknown
9:00 PM 26.4 °F 18.9 °F 23.5 °F 89% 30.52 in - South 6.9 mph - N/A   Unknown
10:00 PM 24.8 °F 19.1 °F 22.6 °F 91% 30.51 in - South 4.6 mph - N/A   Unknown
11:00 PM 25.5 °F - 24.1 °F 94% 30.49 in - SE 1.2 mph - N/A   Unknown